Location: Podia
(1.5569°N, 32.3469°E)
Time: 13:52:20
(UTC+00:00)

CZ-2D R/B - Pass Details

Date: 01 June 2020
Orbit: 520 x 539 km, 97.4° (Epoch: 04 July)

Event Time Altitude Azimuth Distance (km) Brightness Sun altitude
Exits shadow 16:39:19 - 161° (SSE) 2,141 5.9 -11.1°
Reaches altitude 10° 16:40:11 10° 159° (SSE) 1,783 5.5 -11.3°
Maximum altitude 16:43:59 59° 79° (ENE) 618 3.3 -12.2°
Drops below altitude 10° 16:47:47 10° 359° (N) 1,784 6.2 -13.1°
Sets 16:49:55 0° 355° (N) 2,674 7.2 -13.6°
